Regional Weather Roundup
Issued by NWS

Home | Current Version | Previous Version | Text Only | Print | Product List | Glossary On
Versions: 1 2 3 4 5 6 7 8 9 10 11 12 13 14 15 16 17 18 19 20 21 22 23 24 25 26 27 28 29 30 31 32 33 34 35 36 37 38 39 40 41 42 43 44 45 46 47 48 49 50
329
ASUS43 KMPX 262010
RWRMN
WEATHER ROUNDUP FOR MINNESOTA
NATIONAL WEATHER SERVICE TWIN CITIES/CHANHASSEN MN
300 PM CDT FRI AUG 26 2016


NOTE: "FAIR" INDICATES FEW OR NO CLOUDS BELOW 12,000 FEET WITH NO
SIGNIFICANT WEATHER AND/OR OBSTRUCTIONS TO VISIBILITY. N/A MEANS
CURRENT SKY AND/OR WEATHER CONDITIONS ARE NOT AVAILABLE.

MNZ060>063-068>070-262100-
   Twin Cities Metro

CITY           SKY/WX    TMP DP  RH WIND       PRES   REMARKS
TWIN CITIES    CLOUDY    71  53  52 VRB5      30.15F
ST PAUL        PTSUNNY   71  56  58 S7        30.15F
CRYSTAL        CLOUDY    73  49  42 CALM      30.14F
BLAINE         CLOUDY    73  52  46 SE5       30.15F
LAKEVILLE      CLOUDY    70  54  56 CALM      30.16F
EDEN PRAIRIE   PTSUNNY   73  55  53 VRB3      30.14F
LAKEVILLE      CLOUDY    70  54  56 CALM      30.16F
SOUTH ST PAUL  CLOUDY    71  53  52 S5        30.15F
LAKE ELMO      FAIR      70  54  56 CALM      30.17S
$$
MNZ001>005-007-008-013>017-022>024-027-028-262100-
   Northwest Minnesota

CITY           SKY/WX    TMP DP  RH WIND       PRES   REMARKS
BEMIDJI        PTSUNNY   74  46  36 SW9       30.09F
HALLOCK        CLOUDY    77  50  38 S15       30.01F
ROSEAU         MOSUNNY   77  46  33 SW8       30.04F
WARROAD        CLOUDY    73  54  49 W6        30.05F
THIEF RVR FALL SUNNY     74  45  35 SW10      30.07F
CROOKSTON      MOSUNNY   77  48  36 SW10G18   30.06F
FOSSTON        SUNNY     73  46  38 SW7       30.09F
DETROIT LAKES  MOSUNNY   72  50  46 SW10G16   30.12F
MOORHEAD       MOSUNNY   75  50  41 SW10      30.09F
PARK RAPIDS    MOSUNNY   74  48  39 W6        30.11S
MAHNOMEN       FAIR      73  53  48 SW14G20   30.09F
$$
MNZ006-009>011-018-025>026-262100-
   North Central Minnesota

CITY           SKY/WX    TMP DP  RH WIND       PRES   REMARKS
BAUDETTE       MOSUNNY   74  47  38 W7        30.06F
FLAG ISLAND    CLOUDY    72  54  53 S5        30.03F
INTL FALLS     SUNNY     73  53  49 W3        30.07F
WASKISH        SUNNY     73  52  46 SW9       30.09S
BIG FORK       SUNNY     72  52  49 SW8       30.10F
LONGVILLE      MOSUNNY   73  48  40 S9        30.11F
GRAND RAPIDS   SUNNY     73  47  39 SW6       30.12F
CRANE LAKE     MOSUNNY   72  48  43 W7        30.11S
ORR            MOSUNNY   73  45  35 CALM      30.07F
COOK           SUNNY     72  48  43 SW5       30.10F
WALKER         FAIR      72  49  44 SW7       30.10F
$$
MNZ012-019>021-037-262100-
   Northeast Minnesota

CITY           SKY/WX    TMP DP  RH WIND       PRES   REMARKS
DULUTH         CLOUDY    69  52  54 SE7       30.13S
ELY            MOSUNNY   72  46  40 SW8       30.11F
HIBBING        MOSUNNY   69  45  41 W3        30.11F
EVELETH        SUNNY     73  45  36 SW3       30.12F
DULUTH HARBOR  CLOUDY    72  55  56 E5        30.12F
TWO HARBORS    SUNNY     70  55  60 SE6       30.11F
SILVER BAY     PTSUNNY   68  55  64 S8        30.11F
GRAND MARAIS     N/A     64  51  62 SW6       30.12F
G MARAIS ARPRT MOSUNNY   64  48  55 S8        30.14F
$$
MNZ029>031-032-039>041-046>048-054>057-064-262100-
   West Central Minnesota

CITY           SKY/WX    TMP DP  RH WIND       PRES   REMARKS
FERGUS FALLS   MOSUNNY   73  52  46 SW5       30.13S
WHEATON        CLOUDY    73  55  53 S5        30.14F
MORRIS         CLOUDY    73  52  46 S6        30.13F
ALEXANDRIA     CLOUDY    70  51  51 S6        30.16S
ELBOW LAKE     PTSUNNY   73  55  53 S7        30.14S
WADENA         CLOUDY    72  48  43 SW5       30.12S
GLENWOOD       CLOUDY    72  52  49 SW7       30.15F
APPLETON       CLOUDY    72  52  49 S6        30.14F
BENSON         CLOUDY    72  52  49 SW3       30.15S
ORTONVILLE     CLOUDY    73  54  49 CALM      30.13F
MADISON        CLOUDY    72  52  49 CALM      30.14F
WILLMAR        PTSUNNY   72  55  56 S5        30.16F
$$
MNZ033>034-036-042>043-049>051-058-059-262100-
   Central Minnesota

CITY           SKY/WX    TMP DP  RH WIND       PRES   REMARKS
ST CLOUD       MOSUNNY   72  52  49 S6        30.14F
SAUK CENTRE    MOCLDY    71  53  51 S9        30.14F
PAYNESVILLE    CLOUDY    71  51  47 S3        30.16S
AITKIN         CLOUDY    75  43  31 S6        30.11F
PINE RIVER     CLOUDY    72  52  49 SW5       30.14F
BRAINERD       CLOUDY    72  48  42 NW3       30.13S
STAPLES        CLOUDY    72  46  40 CALM      30.12F
LONG PRAIRIE   PTSUNNY   70  50  49 S7        30.15S
LITTLE FALLS   CLOUDY    72  46  40 S6        30.14S
LITCHFIELD     CLOUDY    73  55  53 CALM      30.16S
BUFFALO        PTSUNNY   71  51  49 S3        30.16F
MAPLE LAKE     PTSUNNY   73  56  55 S5        30.16F
HUTCHINSON     CLOUDY    70  56  61 CALM      30.16F
$$
MNZ037-044-045-052-053-262100-
   East Central Minnesota

CITY           SKY/WX    TMP DP  RH WIND       PRES   REMARKS
PRINCETON      CLOUDY    75  52  43 CALM      30.14F
MORA           CLOUDY    70  52  52 S10       30.16F
CAMBRIDGE      CLOUDY    73  55  53 SE5       30.13F
RUSH CITY      CLOUDY    71  51  50 CALM      30.14F
MOOSE LAKE     PTSUNNY   72  52  49 SW7       30.12S
HINCKLEY       FAIR      72  52  49 CALM      30.14S
CLOQUET        CLOUDY    70  46  43 CALM      30.13S
MCGREGOR       CLOUDY    72  50  46 SW7       30.13S
$$
MNZ071>073-080-081-089-090-097-098-262100-
   Southwest Minnesota

CITY           SKY/WX    TMP DP  RH WIND       PRES   REMARKS
MONTEVIDEO     CLOUDY    73  57  56 S5        30.16F
GRANITE FALLS  MOSUNNY   72  58  60 S5        30.17S
CANBY          CLOUDY    72  57  57 SE6       30.15F
MARSHALL       MOSUNNY   71  54  54 S6        30.15S
REDWOOD FALLS  CLOUDY    70  54  56 SE6       30.15S
OLIVIA         PTSUNNY   72  55  56 S7        30.15F
PIPESTONE      MOSUNNY   70  54  56 S5        30.15F
WINDOM         MOSUNNY   70  55  60 SE6       30.16F
WORTHINGTON    CLOUDY    68  57  68 E5        30.16F
JACKSON          N/A     70  55  60 SE7       30.16F
TRACY          PTSUNNY   72  57  59 S6        30.16S
SLAYTON        MOSUNNY   70  55  60 S3        30.17S
$$
MNZ065>067-074>077-082>085-091>093-262100-
   South Central Minnesota

CITY           SKY/WX    TMP DP  RH WIND       PRES   REMARKS
MANKATO        PTSUNNY   70  55  60 SE6       30.16F
NEW ULM        CLOUDY    70  54  56 S6        30.15F
ST JAMES       CLOUDY    64  52  63 SE5       30.17S
FAIRMONT       CLOUDY    69  57  65 VRB7      30.16F
GLENCOE        MOSUNNY   71  57  61 CALM      30.15F
FARIBAULT      CLOUDY    70  55  60 CALM      30.16F
OWATONNA       CLOUDY    72  54  53 CALM      30.16S
WASECA         MOSUNNY   70  55  60 CALM      30.18S
ALBERT LEA     CLOUDY    70  55  60 CALM      30.16F
$$
MNZ078>079-086>088-094>096-262100-
   Southeast Minnesota

CITY           SKY/WX    TMP DP  RH WIND       PRES   REMARKS
ROCHESTER      CLOUDY    70  56  61 CALM      30.17S
RED WING       MOSUNNY   72  50  46 S3        30.15S
STANTON        CLOUDY    70  54  56 CALM      30.15S
DODGE CENTER   CLOUDY    73  55  53 S3        30.17S
WINONA         PTSUNNY   73  57  56 SE6       30.15S
AUSTIN         CLOUDY    68  55  64 CALM      30.16F
PRESTON        CLOUDY    69  55  62 S5        30.17F
$$
ABBREVIATIONS USED IN REMARKS
   TC - TEMPERATURES IN CELSIUS
  WCI - WIND CHILL INDEX
   HX - HEAT INDEX
  VSB - VISIBILITY
$$




USA.gov is the U.S. government's official web portal to all federal, state and local government web resources and services.